Location: Newark
(47.5833°N, 8.1500°E)
Time: 12:31:16
(UTC+00:00)

Transit 2A - Pass Details

Date: 03 November 2020
Orbit: 595 x 964 km, 66.7° (Epoch: 27 November)

Event Time Altitude Azimuth Distance (km) Brightness Sun altitude
Rises 23:52:20 0° 225° (SW) 3,633 - -56.4°
Reaches altitude 10° 23:54:57 10° 228° (SW) 2,696 - -56.3°
Maximum altitude 00:01:15 62° 309° (NW) 1,069 - -55.9°
Drops below altitude 10° 00:07:23 10° 30° (NNE) 2,618 - -55.5°
Exits shadow 00:09:17 - 33° (NNE) 3,303 9.8 -55.4°
Sets 00:09:53 0° 34° (NE) 3,521 10.0 -55.3°
